Hagerstown, MD

10:35 PM EDT on October 14, 2019 (GMT -0400)
Hagerstown Regional-Henson

Weather History for KHGR - September, 2019

Change the Weather History Date:

Saturday, September 21, 2019

  Actual Average Record
Temperature  
Mean Temperature 73 °F 64 °F  
Max Temperature 88 °F 73 °F 88 °F (2019)
Min Temperature 58 °F 54 °F 43 °F (2006)
Degree Days  
Heating Degree Days 0 3  
Month to date heating degree days 1 27  
Since 1 July heating degree days 1 32  
Cooling Degree Days 8 2  
Month to date cooling degree days 163 80  
Year to date cooling degree days 1372 948  
Growing Degree Days 22 (Base 50)    
Moisture  
Dew Point 57 °F    
Average Humidity 60    
Maximum Humidity 80    
Minimum Humidity 40    
Precipitation  
Precipitation 0.00 in 0.13 in 0.18 in (2002)
Month to date precipitation 0.39 2.41  
Year to date precipitation 28.76 29.04  
Sea Level Pressure  
Sea Level Pressure 30.23 in    
Wind  
Wind Speed 3 mph (SSE)    
Max Wind Speed 10 mph    
Max Gust Speed 13 mph    
Visibility 10 miles    
Events      
T = Trace of Precipitation, MM = Missing Value Source: NWS Daily Summary

Daily Weather History Graph

Daily Weather History Graph

Search for Another Location

Airport or City:

Astronomy

Sep. 21, 2019 Rise Set
Actual Time 6:57 AM EDT 7:10 PM EDT
Civil Twilight 6:30 AM EDT 7:36 PM EDT
Nautical Twilight 5:58 AM EDT 8:08 PM EDT
Astronomical Twilight 5:26 AM EDT 8:40 PM EDT
Moon 11:47 PM EDT (9/21) 2:00 PM EDT (9/21)
Length of Visible Light 13h 06m
Length of Day
12h 12m
Waning Gibbous, 55% of the Moon is Illuminated
Sep 21
Waning Gibbous
Sep 21
Last Quarter
Sep 28
New
Oct 5
First Quarter
Oct 13
Full

Hourly Weather History & Observations

Time (EDT) Temp. Heat Index Dew Point Humidity Pressure Visibility Wind Dir Wind Speed Gust Speed Precip Events Conditions
12:53 AM 64.0 °F - 51.1 °F 63% 30.25 in 10.0 mi East 5.8 mph - N/A   Clear
1:53 AM 63.0 °F - 51.1 °F 65% 30.25 in 10.0 mi Calm Calm - N/A   Partly Cloudy
2:53 AM 63.0 °F - 51.1 °F 65% 30.25 in 10.0 mi Calm Calm - N/A   Partly Cloudy
3:53 AM 61.0 °F - 51.1 °F 70% 30.25 in 10.0 mi Calm Calm - N/A   Clear
4:53 AM 60.1 °F - 51.1 °F 72% 30.25 in 10.0 mi Calm Calm - N/A   Partly Cloudy
5:53 AM 61.0 °F - 51.1 °F 70% 30.26 in 10.0 mi Calm Calm - N/A   Clear
6:53 AM 59.0 °F - 52.0 °F 78% 30.27 in 10.0 mi East 3.5 mph - N/A   Clear
7:53 AM 57.9 °F - 52.0 °F 81% 30.29 in 10.0 mi Calm Calm - N/A   Clear
8:53 AM 63.0 °F - 53.1 °F 70% 30.30 in 10.0 mi Calm Calm - N/A   Clear
9:53 AM 68.0 °F - 55.0 °F 63% 30.30 in 10.0 mi SSE 3.5 mph - N/A   Clear
10:53 AM 73.0 °F - 55.0 °F 53% 30.28 in 10.0 mi Calm Calm - N/A   Clear
11:53 AM 78.1 °F - 55.0 °F 45% 30.26 in 10.0 mi WSW 3.5 mph - N/A   Clear
12:53 PM 82.0 °F 81.6 °F 55.9 °F 41% 30.24 in 10.0 mi SSW 6.9 mph - N/A   Clear
1:53 PM 84.0 °F 83.8 °F 59.0 °F 43% 30.22 in 10.0 mi SSE 5.8 mph - N/A   Scattered Clouds
2:53 PM 86.0 °F 85.4 °F 59.0 °F 40% 30.19 in 10.0 mi NE 4.6 mph - N/A   Partly Cloudy
3:53 PM 87.1 °F 86.7 °F 60.1 °F 40% 30.17 in 10.0 mi SSE 6.9 mph - N/A   Clear
4:53 PM 86.0 °F 85.7 °F 60.1 °F 41% 30.17 in 10.0 mi South 6.9 mph - N/A   Scattered Clouds
5:53 PM 86.0 °F 86.1 °F 61.0 °F 43% 30.17 in 10.0 mi SE 6.9 mph - N/A   Partly Cloudy
6:53 PM 84.0 °F 84.0 °F 60.1 °F 44% 30.17 in 10.0 mi SSE 4.6 mph - N/A   Mostly Cloudy
7:53 PM 81.0 °F 81.9 °F 62.1 °F 52% 30.18 in 10.0 mi SE 5.8 mph - N/A   Clear
8:53 PM 78.1 °F - 64.0 °F 62% 30.20 in 10.0 mi South 6.9 mph - N/A   Scattered Clouds
9:53 PM 73.9 °F - 64.9 °F 73% 30.21 in 10.0 mi SE 5.8 mph - N/A   Clear
10:53 PM 73.0 °F - 64.9 °F 76% 30.22 in 10.0 mi Calm Calm - N/A   Clear
11:53 PM 72.0 °F - 64.9 °F 78% 30.22 in 10.0 mi Calm Calm - N/A   Clear